Weather observations for the past three days for
Chehalis-Centralia Airport
Metric (Imperial)
Date Time (pdt) Wind (kph) Vis. (km) Weather Sky Cond. Temperature (ºC) Relative Humidity Wind Chill (°C) Heat Index (°C) Pressure Precipitation (cm)
Air Dwpt 6 hour altimeter (cm) sea level (mb) 1 hr 3 hr 6 hr
Max. Min.
10 13:15 Vrbl 9 16.09 Overcast SCT044 BKN050 OVC055 17 9 60% 76.5 0.0
10 12:55 W 7 G 20 16.09 Overcast FEW038 BKN050 OVC055 17 9 60% 76.5 0.0
10 12:35 Vrbl 6 G 19 16.09 Overcast BKN035 OVC044 17 10 64% 76.5 0.0
10 12:15 Calm 16.09 Mostly Cloudy BKN034 16 11 72% 76.48 0.0
10 11:55 Vrbl 9 16.09 A Few Clouds FEW030 16 11 72% 76.48 0.0
10 11:35 Calm 16.09 A Few Clouds FEW030 15 10 72% 76.48 0.0
10 11:15 Vrbl 9 16.09 Partly Cloudy SCT029 14 11 82% 76.5 0.0
10 10:55 S 6 16.09 A Few Clouds FEW024 FEW029 14 11 82% 76.5 0.0
10 10:35 Vrbl 7 16.09 A Few Clouds FEW026 14 11 82% 76.48 0.0
10 10:15 S 7 16.09 Mostly Cloudy BKN026 13 11 88% 76.45 0.0
10 09:55 SW 7 16.09 A Few Clouds FEW026 13 11 88% 76.45 0.0
10 09:35 Calm 16.09 Fair CLR 13 11 88% 76.45 0.0
10 09:15 Vrbl 7 16.09 Fair CLR 13 11 88% 76.45 0.0
10 08:55 SW 9 16.09 Fair CLR 12 12 100% 76.4 0.0
10 08:35 S 7 16.09 Fair CLR 12 11 94% 76.38 0.0
10 08:15 S 7 16.09 Fair CLR 12 12 100% 76.4 0.0
10 07:55 S 6 16.09 Fair CLR 12 12 100% 76.38 0.0
10 07:35 S 7 16.09 Fair CLR 11 11 100% 76.38 0.0
10 07:15 S 9 16.09 Fair CLR 11 11 100% 76.4 0.0
10 06:55 Calm 16.09 Fair CLR 10 10 100% 76.35 0.0
10 06:35 Calm 16.09 Fair CLR 9 9 100% 76.38 0.0
10 06:15 Calm 16.09 Fair CLR 9 9 100% 76.38 0.0
10 05:55 Calm 16.09 Fair CLR 9 9 100% 76.35 0.0
10 05:35 Calm 16.09 Fair CLR 9 9 100% 76.38 0.0
10 05:15 Calm 16.09 Fair CLR 9 9 100% 76.4 0.0
10 04:55 Calm 16.09 Fair CLR 9 9 100% 76.4 0.0
10 04:35 Calm 16.09 Fair CLR 9 9 100% 76.38 0.0
10 04:15 Calm 16.09 Fair CLR 10 10 100% 76.35 0.0
10 03:55 Calm 16.09 Fair CLR 11 11 100% 76.33 0.0
10 03:35 Calm 16.09 Fair CLR 11 11 100% 76.35 0.0
10 03:15 SW 7 16.09 Fair CLR 11 11 100% 76.3 0.0
10 02:55 SW 9 16.09 Fair CLR 11 11 100% 76.3 0.0
10 02:35 SW 6 16.09 Fair CLR 11 11 100% 76.3 0.0
10 02:15 SW 6 16.09 Fair CLR 11 11 100% 76.3 0.0
10 01:55 SW 7 16.09 Fair CLR 11 11 100% 76.3 0.0
10 01:35 SW 7 16.09 Fair CLR 11 11 100% 76.28 0.0
10 01:15 SW 9 16.09 Fair CLR 11 11 100% 76.28 0.0
10 00:55 Calm 16.09 Fair CLR 10 10 100% 76.28 0.0
10 00:35 Calm 16.09 Fair CLR 11 11 100% 76.25 0.0
10 00:15 Calm 16.09 Fair CLR 11 11 100% 76.25 0.0
09 23:55 Calm 16.09 Fair CLR 11 11 100% 76.25 0.0
09 23:35 Calm 16.09 Fair CLR 12 11 94% 76.25 0.0
09 23:15 Calm 16.09 Fair CLR 12 11 94% 76.25 0.0
09 22:55 Calm 16.09 Fair CLR 12 12 100% 76.25 0.0
09 22:35 Calm 16.09 Fair CLR 13 12 94% 76.23 0.0
09 22:15 Calm 16.09 Fair CLR 13 12 94% 76.23 0.0
09 21:55 Calm 16.09 Fair CLR 13 12 94% 76.2 0.0
09 21:35 Calm 16.09 Fair CLR 14 13 94% 76.2 0.0
09 21:15 Calm 16.09 Fair CLR 16 12 77% 76.2 0.0
09 20:55 Calm 16.09 Fair CLR 16 12 77% 76.17 0.0
09 20:35 Calm 16.09 Fair CLR 17 12 73% 76.2 0.0
09 20:15 Calm 16.09 Fair CLR 18 12 68% 76.17 0.0
09 19:55 Calm 16.09 Fair CLR 19 11 60% 76.17 0.0
09 19:35 Calm 16.09 Fair CLR 19 10 56% 76.17 0.0
09 19:15 N 11 16.09 Fair CLR 20 9 49% 76.2 0.0
09 18:55 NE 13 16.09 Fair CLR 20 9 49% 76.2 0.0
09 18:35 NE 13 16.09 Fair CLR 21 9 46% 76.23 0.0
09 18:15 NE 11 16.09 Fair CLR 21 8 43% 76.25 0.0
09 17:55 NE 13 16.09 Fair CLR 21 9 46% 76.25 0.0
09 17:35 NE 9 16.09 Fair CLR 22 9 44% 76.28 0.0
09 17:15 Vrbl 6 16.09 Fair CLR 22 8 41% 76.28 0.0
09 16:55 Calm 16.09 Fair CLR 21 8 43% 76.3 0.0
09 16:35 Vrbl 7 16.09 Fair CLR 22 7 38% 76.33 0.0
09 16:15 Vrbl 7 16.09 Fair CLR 21 7 40% 76.33 0.0
09 15:55 Vrbl 6 16.09 Fair CLR 21 8 43% 76.35 0.0
09 15:35 Calm 16.09 Fair CLR 21 8 43% 76.38 0.0
09 15:15 Vrbl 7 16.09 Fair CLR 21 9 46% 76.4 0.0
09 14:55 Vrbl 6 16.09 Fair CLR 21 10 50% 76.4 0.0
09 14:35 Calm 16.09 Fair CLR 20 10 53% 76.43 0.0
09 14:15 N 7 16.09 Fair CLR 20 11 56% 76.43 0.0
09 13:55 N 7 16.09 Fair CLR 20 11 56% 76.45 0.0
09 13:35 NW 9 16.09 Fair CLR 19 11 60% 76.45 0.0
09 13:15 Vrbl 7 16.09 Fair CLR 19 11 60% 76.45 0.0
09 12:55 Calm 16.09 Fair CLR 19 12 64% 76.5 0.0
09 12:35 Vrbl 7 16.09 Fair CLR 18 11 64% 76.5 0.0
09 12:15 Calm 16.09 Fair CLR 18 11 64% 76.53 0.0
09 11:55 Calm 16.09 Fair CLR 17 11 68% 76.53 0.0
09 11:35 Calm 16.09 Fair CLR 17 12 73% 76.56 0.0
09 11:15 Calm 16.09 Fair CLR 16 12 77% 76.58 0.0
09 10:55 Calm 16.09 Fair CLR 16 12 77% 76.58 0.0
09 10:35 Vrbl 6 16.09 Fair CLR 15 12 82% 76.58 0.0
09 10:15 Calm 16.09 Fair CLR 15 12 82% 76.61 0.0
09 09:55 Calm 16.09 Fair CLR 15 12 82% 76.61 0.0
09 09:35 Calm 16.09 Fair CLR 13 12 94% 76.61 0.0
09 09:15 Calm 16.09 Fair CLR 13 12 94% 76.63 0.0
09 08:55 NE 7 16.09 Fair CLR 12 12 100% 76.66 0.0
09 08:35 NE 7 16.09 Fair CLR 12 12 100% 76.66 0.0
09 08:15 Calm 16.09 Mostly Cloudy BKN006 11 11 100% 76.66 0.0
09 07:55 Calm 14.48 Mostly Cloudy BKN006 10 10 100% 76.66 0.0
09 07:35 Calm 11.27 A Few Clouds FEW006 9 9 100% 76.68 0.0
09 07:15 Calm 9.66 Fog/Mist SCT004 9 9 100% 76.68 0.0
09 06:55 Calm 2.41 Fog/Mist NULL 9 9 100% 76.66 0.0
09 06:35 Calm 0.80 Fog/Mist BKN005 8 8 100% 76.66 0.0
09 06:15 Calm 0.80 Fog/Mist NULL 8 8 100% 76.66 0.0
09 05:55 Calm 14.48 NULL NULL 8 8 100% 76.68 0.0
09 05:35 Calm 12.87 NULL NULL 8 8 100% 76.66 0.0
09 05:15 Calm 16.09 NULL NULL 9 9 100% 76.68 0.0
09 04:55 Calm 16.09 A Few Clouds FEW036 9 9 100% 76.68 0.0
09 04:35 Calm 16.09 Overcast OVC037 10 10 100% 76.71 0.0
09 04:15 Calm 16.09 Overcast OVC038 10 10 100% 76.71 0.0
09 03:55 Calm 16.09 Overcast OVC038 10 10 100% 76.71 0.0
09 03:35 Calm 16.09 Overcast OVC038 10 10 100% 76.71 0.0
09 03:15 Calm 16.09 Overcast OVC038 10 10 100% 76.73 0.0
09 02:55 Calm 16.09 Overcast OVC038 10 10 100% 76.73 0.0
09 02:35 Calm 16.09 Overcast OVC039 10 10 100% 76.73 0.0
09 02:15 Calm 16.09 Overcast OVC039 9 9 100% 76.73 0.0
09 01:55 Calm 16.09 Overcast OVC039 9 9 100% 76.76 0.0
09 01:35 Calm 16.09 Overcast OVC039 9 9 100% 76.76 0.0
09 01:15 Calm 16.09 NULL NULL 9 9 100% 76.76 0.0
09 00:55 Calm 16.09 NULL NULL 9 9 100% 76.76 0.0
09 00:35 Calm 16.09 NULL NULL 9 9 100% 76.76 0.0
09 00:15 Calm 16.09 NULL NULL 9 9 100% 76.76 0.0
08 23:55 Calm 16.09 Mostly Cloudy FEW047 BKN060 10 10 100% 76.76 0.0
08 23:35 Calm 16.09 NULL NULL 10 10 100% 76.76 0.0
08 23:15 Calm 16.09 NULL NULL 11 11 100% 76.73 0.0
08 22:55 Calm 16.09 NULL NULL 12 11 94% 76.73 0.0
08 22:35 Calm 16.09 NULL NULL 12 11 94% 76.73 0.0
08 22:15 NE 7 16.09 NULL NULL 13 11 88% 76.73 0.0
08 21:55 Calm 16.09 Mostly Cloudy FEW037 BKN065 13 11 88% 76.73 0.0
08 21:35 Calm 16.09 Mostly Cloudy BKN038 13 11 88% 76.71 0.0
08 21:15 NW 7 16.09 Overcast OVC039 14 11 82% 76.71 0.0
08 20:55 Vrbl 6 16.09 Overcast OVC039 14 11 82% 76.71 0.0
08 20:35 Calm 16.09 Overcast OVC039 14 11 82% 76.68 0.0
08 20:15 Calm 16.09 Overcast OVC041 14 11 82% 76.68 0.0
08 19:55 NW 7 16.09 Partly Cloudy SCT043 15 10 72% 76.68 0.0
08 19:35 W 9 16.09 Partly Cloudy SCT070 16 9 63% 76.66 0.0
08 19:15 Vrbl 6 16.09 Overcast OVC070 16 9 63% 76.66 0.0
08 18:55 NW 7 16.09 Overcast OVC070 16 9 63% 76.66 0.0
08 18:35 Vrbl 6 16.09 Mostly Cloudy SCT055 BKN070 16 9 63% 76.66 0.0
08 18:15 Calm 16.09 Mostly Cloudy BKN050 17 8 56% 76.66 0.0
08 17:55 Vrbl 6 16.09 Mostly Cloudy FEW044 BKN050 BKN055 17 8 56% 76.66 0.0
08 17:35 Vrbl 7 16.09 Mostly Cloudy BKN043 17 8 56% 76.66 0.0
08 17:15 Calm 16.09 Overcast OVC043 16 7 55% 76.68 0.0
08 16:55 Vrbl 7 16.09 Overcast OVC043 17 7 52% 76.66 0.0
08 16:35 W 7 16.09 Overcast OVC044 16 7 55% 76.68 0.0
08 16:15 Vrbl 7 16.09 Overcast OVC045 16 7 55% 76.68 0.0
08 15:55 SW 9 16.09 Overcast OVC045 16 7 55% 76.66 0.0
08 15:35 SW 9 16.09 Overcast OVC044 16 7 55% 76.66 0.0
08 15:15 SW 13 16.09 Overcast OVC045 16 7 55% 76.68 0.0
08 14:55 S 11 G 22 16.09 Overcast OVC044 16 7 55% 76.68 0.0
08 14:35 Vrbl 9 16.09 Overcast OVC041 16 7 55% 76.68 0.0
08 14:15 S 11 16.09 Overcast OVC044 15 6 55% 76.66 0.0
08 13:55 Vrbl 9 16.09 Overcast OVC045 15 6 55% 76.66 0.0
08 13:35 W 13 16.09 Mostly Cloudy BKN045 15 6 55% 76.63 0.0
08 13:15 SW 11 G 24 16.09 Partly Cloudy SCT044 16 6 52% 76.63 0.0
08 12:55 SW 13 16.09 Mostly Cloudy FEW038 BKN046 15 7 59% 76.63 0.0
08 12:35 SW 11 16.09 Overcast FEW035 OVC044 14 7 63% 76.63 0.0
08 12:15 SW 9 16.09 Overcast FEW035 OVC043 14 7 63% 76.66 0.0
08 11:55 SW 11 16.09 Overcast OVC040 13 7 67% 76.63 0.0
08 11:35 SW 13 16.09 Overcast OVC038 13 7 67% 76.63 0.0
08 11:15 Vrbl 7 16.09 Overcast BKN036 OVC041 13 7 67% 76.63 0.0
08 10:55 SW 7 16.09 Overcast OVC035 12 7 72% 76.63 0.0
08 10:35 Vrbl 7 16.09 Overcast OVC033 12 8 77% 76.61 0.0
08 10:15 Vrbl 7 16.09 Overcast OVC035 12 8 77% 76.61 0.0
08 09:35 Calm 16.09 Mostly Cloudy BKN034 11 9 88% 76.58 0.0
08 09:15 SW 7 16.09 Mostly Cloudy BKN032 11 9 88% 76.56 0.0
08 08:55 S 7 16.09 Mostly Cloudy BKN030 11 9 88% 76.56 0.0
08 08:35 S 6 16.09 Fair CLR 10 9 94% 76.53 0.0
08 08:15 SE 11 16.09 Fair CLR 11 9 88% 76.53 0.0
08 07:55 S 6 16.09 Fair CLR 10 8 88% 76.53 0.0
08 07:35 S 7 16.09 Partly Cloudy FEW030 SCT036 10 8 88% 9 76.53 0.0
08 07:15 S 6 16.09 Partly Cloudy SCT029 10 9 94% 76.53 0.0
08 06:55 Calm 16.09 A Few Clouds FEW033 9 9 100% 76.5 0.0
08 06:35 Calm 16.09 Partly Cloudy SCT033 9 8 94% 76.48 0.0
08 06:15 Calm 16.09 Fair CLR 8 8 100% 76.45 0.0
08 05:55 Calm 16.09 Fair CLR 8 8 100% 76.45 0.0
08 05:35 Calm 16.09 Fair CLR 8 8 100% 76.43 0.0
08 05:15 Calm 16.09 Mostly Cloudy SCT022 BKN028 BKN033 8 8 100% 76.43 0.0
08 04:55 Calm 16.09 Mostly Cloudy BKN022 BKN027 BKN036 8 8 100% 76.43 0.0
08 04:35 Calm 16.09 A Few Clouds FEW036 8 8 100% 76.4 0.0
08 04:15 Calm 16.09 Fair CLR 8 8 100% 76.38 0.0
08 03:55 Calm 16.09 Fair CLR 8 8 100% 76.38 0.0
08 03:35 Calm 16.09 Fair CLR 8 8 100% 76.35 0.0
08 03:15 Calm 16.09 Fair CLR 8 8 100% 76.35 0.0
08 02:55 Calm 16.09 Fair CLR 8 8 100% 76.33 0.0
08 02:35 Calm 16.09 Fair CLR 8 8 100% 76.33 0.0
08 02:15 Calm 16.09 Fair CLR 9 9 100% 76.33 0.0
08 01:55 Calm 16.09 Fair CLR 9 9 100% 76.33 0.0
08 01:35 Calm 16.09 NULL NULL 9 9 100% 76.33 0.0
08 01:15 Calm 16.09 NULL NULL 9 9 100% 76.3 0.0
08 00:55 Calm 16.09 Fair CLR 9 9 100% 76.3 0.0
08 00:35 Calm 16.09 Fair CLR 9 9 100% 76.3 0.0
08 00:15 Calm 16.09 Fair CLR 10 10 100% 76.3 0.0
07 23:55 Calm 16.09 Fair CLR 10 10 100% 76.3 0.0
07 23:35 SW 6 16.09 Fair CLR 10 10 100% 76.3 0.0
07 23:15 Calm 16.09 Fair CLR 10 10 100% 76.3 0.0
07 22:55 SW 7 16.09 Fair CLR 11 10 94% 76.3 0.0
07 22:35 Calm 16.09 NULL NULL 11 10 94% 76.3 0.0
07 22:15 Calm 16.09 Fair CLR 12 10 88% 76.3 0.0
07 21:55 Calm 16.09 Fair CLR 12 10 88% 76.3 0.0
07 21:35 Calm 16.09 Fair CLR 13 10 82% 76.3 0.0
07 21:15 W 6 16.09 Fair CLR 14 10 77% 76.3 0.0
07 20:55 Calm 16.09 Fair CLR 15 10 72% 76.28 0.0
07 20:35 Calm 16.09 Fair CLR 15 9 68% 76.28 0.0
07 20:15 Calm 16.09 Fair CLR 16 9 63% 76.25 0.0
07 19:55 Calm 16.09 Fair CLR 17 9 60% 76.25 0.0
07 19:35 NW 9 16.09 Fair CLR 18 9 56% 76.25 0.0
07 19:15 Vrbl 7 16.09 Fair CLR 19 8 49% 76.25 0.0
07 18:55 Calm 16.09 Fair CLR 19 7 46% 76.25 0.0
07 18:35 Calm 16.09 Fair CLR 19 6 43% 76.25 0.0
07 18:15 NE 7 16.09 Fair CLR 19 6 43% 76.28 0.0
07 17:55 Calm 16.09 Fair CLR 19 6 43% 76.28 0.0
07 17:35 Vrbl 7 16.09 Fair CLR 19 6 43% 76.3 0.0
07 17:15 NE 11 16.09 Fair CLR 19 6 43% 76.3 0.0
07 16:55 Vrbl 9 G 19 16.09 Fair CLR 19 5 40% 76.3 0.0
07 16:35 NE 9 16.09 Fair CLR 18 5 43% 76.33 0.0
07 16:15 NE 11 16.09 Fair CLR 18 5 43% 76.35 0.0
07 15:55 Vrbl 9 16.09 Fair CLR 17 4 42% 76.38 0.0
07 15:35 NE 7 16.09 Fair CLR 17 5 45% 76.4 0.0
07 15:15 NE 9 16.09 Fair CLR 17 5 45% 76.43 0.0
07 14:55 Vrbl 6 16.09 Fair CLR 16 5 48% 76.43 0.0
07 14:35 Calm 16.09 Fair CLR 16 7 55% 76.45 0.0
07 14:15 NE 9 16.09 Fair CLR 16 6 52% 76.45 0.0
07 13:35 Calm 16.09 Fair CLR 14 6 59% 76.5 0.0
Date Time (pdt) Wind (kph) Vis. (km) Weather Sky Cond. Air Dwpt Max. Min. Relative Humidity Wind Chill (°C) Heat Index (°C) altimeter (cm) sea level (mb) 1 hr 3 hr 6 hr
6 hour
Temperature (ºC) Pressure Precipitation (cm)